Regional Weather Roundup
Issued by NWS

Home | Current Version | Previous Version | Text Only | Print | Product List | Glossary On
Versions: 1 2 3 4 5 6 7 8 9 10 11 12 13 14 15 16 17 18 19 20 21 22 23 24 25 26 27 28 29 30 31 32 33 34 35 36 37 38 39 40 41 42 43 44 45 46 47 48 49 50
000
ASUS43 KOAX 152010
RWRNE

WEATHER ROUNDUP FOR NEBRASKA
NATIONAL WEATHER SERVICE OMAHA NE
200 PM CST FRI DEC 15 2017

NOTES: SATELLITE DATA IS BEING USED TO AUGMENT CLOUD COVER ABOVE
       12000 FEET.
       "FAIR" INDICATES FEW OR NO CLOUDS BELOW 12,000 FEET WITH NO
       SIGNIFICANT WEATHER AND/OR OBSTRUCTIONS TO VISIBILITY.


NEZ001>004-019>022-054>056-152100-
NEBRASKA PANHANDLE

CITY           SKY/WX    TMP DP  RH WIND       PRES   REMARKS
SCOTTSBLUFF    SUNNY     57  14  18 W18       29.86F
ALLIANCE       CLOUDY    54  16  22 W20       29.83F
CHADRON        CLOUDY    57  13  17 W13       29.79F
GORDON         FAIR      52  18  26 W16       29.77F
KIMBALL        CLOUDY    55  14  20 W18G24    29.90F
SIDNEY         CLOUDY    60  12  15 W20       29.88F
$$

NEZ057>060-069>072-079>082-152100-
SOUTHWEST NEBRASKA

CITY           SKY/WX    TMP DP  RH WIND       PRES   REMARKS
NORTH PLATTE   SUNNY     54  17  23 W15       29.86F
IMPERIAL       SUNNY     58  10  15 W18       29.89F
LEXINGTON      SUNNY     51  21  30 W13       29.87F
MCCOOK         SUNNY     56  14  19 W17       29.90F
OGALLALA       SUNNY     60  13  15 W13G24    29.85F
$$

NEZ005>010-023>029-035>040-094-152100-
NORTH CENTRAL NEBRASKA

CITY           SKY/WX    TMP DP  RH WIND       PRES   REMARKS
VALENTINE      SUNNY     51  27  39 SW13      29.76F
AINSWORTH      SUNNY     47  34  61 SW10      29.77F
BROKEN BOW     SUNNY     48  28  46 W14       29.83F
O`NEILL        SUNNY     44  29  56 SW14      29.78F
ORD            SUNNY     46  28  49 W13       29.83F
THEDFORD       SUNNY     56  22  26 W13       29.80F
$$

NEZ041-046>049-061>064-073>077-083>087-152100-
SOUTH CENTRAL NEBRASKA

CITY           SKY/WX    TMP DP  RH WIND       PRES   REMARKS
GRAND ISLAND   SUNNY     45  29  53 SW17G28   29.85F
AURORA         SUNNY     46  31  57 SW17G23   29.85F
HASTINGS       SUNNY     46  26  45 SW15G24   29.87F
HEBRON         SUNNY     48  28  45 SW14G21   29.95F
HOLDREGE       SUNNY     50  22  33 SW13G18   29.87F
KEARNEY        SUNNY     50  22  33 W16       29.87F
YORK           SUNNY     45  32  61 SW18      29.86F
$$

NEZ011>018-030>034-042>045-152100-
NORTHEAST NEBRASKA

CITY           SKY/WX    TMP DP  RH WIND       PRES   REMARKS
NORFOLK        CLOUDY    44  27  51 SW15      29.82F
ALBION         CLOUDY    43  30  60 SW7       29.84F
BLAIR          MOSUNNY   46  27  48 SW18G25   29.87F
COLUMBUS       SUNNY     44  29  55 SW13      29.86F
FREMONT        CLOUDY    48  26  42 SW15G21   29.88F
TEKAMAH        CLOUDY    47  24  40 SW18G26   29.85F
WAYNE          CLOUDY    46  21  38 SW13      29.81F
$$

NEZ050>053-065>068-078-088>093-152100-
SOUTHEAST NEBRASKA

CITY           SKY/WX    TMP DP  RH WIND       PRES   REMARKS
LINCOLN        SUNNY     48  25  40 SW18G31   29.91F
OMAHA EPPLEY   MOSUNNY   46  25  43 SW17      29.89F
BEATRICE       SUNNY     48  28  45 SW16G23   29.95F
FALLS CITY     SUNNY     47  22  37 W20G26    29.98F
NEBRASKA CITY  SUNNY     47  28  47 SW23      29.94F
PLATTSMOUTH    SUNNY     47  28  47 SW23      29.91F
$$

NEZ044-045-051>053-067-152100-
OMAHA AREA

CITY           SKY/WX    TMP DP  RH WIND       PRES   REMARKS
OMAHA EPPLEY   MOSUNNY   46  25  43 SW17      29.89F
BLAIR          MOSUNNY   46  27  48 SW18G25   29.87F
FREMONT        CLOUDY    48  26  42 SW15G21   29.88F
MILLARD        SUNNY     47  28  46 SW12G22   29.90F
OFFUTT AFB     PTSUNNY   46  25  42 SW18G24   29.90F
PLATTSMOUTH    SUNNY     47  28  47 SW23      29.91F
WAHOO          FAIR      47  25  41 SW16      29.88F
$$




USA.gov is the U.S. government's official web portal to all federal, state and local government web resources and services.